STARLINK-35470

Last updated on Fri Dec 12 2025 00:02:05 GMT+0000 (Coordinated Universal Time)

1 66430U 25259J 25345.56503942 .00069977 00000+0 16610-2 0 9998 2 66430 43.0063 54.6400 0002410 283.3726 76.6862 15.40809606 5980
UTC large
Height (km)
Speed (km/s)
/
Latitude / Longitude
Inclination (degrees)
Orbital Period (minutes)
Azimuth
Elevation
Range (km)
Doppler Factor

Next 0 passes for location: London (51.5072 / 0.1276)

Sorry there are no passes over London.